Theta_e
271 276 278 276 275 274 274 277 270 271 270 280 279 280 280 280 283 285 283 278 283 282 280 276 278 281 283 283 284 287 287 286 286 286 287 288 288 289 289 290 290 291 291 292
267 271 273 271 275 274 272 271 276 278 278 285 285 284 280 279 283 283 283 281 284 283 279 277 275 279 283 280 283 284 283 286 286 286 286 286 286 286 287 287 288 288 289 289
266 269 267 269 271 275 276 278 276 272 279 283 284 286 283 285 283 282 283 285 283 281 279 278 278 282 281 282 283 284 283 284 285 285 284 285 285 285 284 285 286 286 286 287
266 268 268 278 279 279 278 278 281 281 282 286 287 288 288 288 287 286 286 287 286 284 282 280 280 278 282 282 282 282 282 282 284 285 284 283 283 283 283 283 284 284 284 284
265 261 276 277 280 279 278 279 283 282 284 285 287 287 287 289 290 289 288 287 284 283 282 281 281 281 282 281 280 281 280 281 283 284 281 281 280 280 280 280 282 282 282 282
262 264 269 278 281 285 285 277 286 285 285 285 286 281 282 288 289 289 289 287 284 282 281 281 280 281 281 280 280 279 280 281 281 281 281 280 280 280 280 280 281 281 281 281
263 263 274 280 283 286 275 279 287 287 287 286 285 286 287 288 288 288 287 285 283 281 281 280 280 281 280 279 279 280 279 279 279 280 280 280 280 280 280 279 279 278 279 279
265 264 272 283 283 281 284 286 286 287 288 288 288 287 285 287 287 286 285 283 282 280 280 279 280 280 279 279 278 276 276 276 275 276 280 280 278 278 277 277 275 274 274 277
276 277 283 286 284 287 288 287 287 287 288 289 288 288 286 285 285 285 284 283 282 280 278 275 275 277 277 275 274 272 271 270 271 273 276 278 276 275 275 274 273 274 275 273
277 281 283 283 287 286 288 288 288 289 289 289 288 288 288 286 285 284 283 282 279 277 275 276 273 276 275 274 273 271 269 270 272 273 273 274 278 278 274 273 272 274 274 272
276 281 281 283 283 285 286 285 286 288 289 289 288 288 288 287 285 284 284 278 278 280 279 278 274 273 271 272 273 273 272 272 272 273 272 273 275 275 276 275 276 271 269 271
281 284 285 286 284 284 284 284 285 284 285 287 287 288 286 286 285 284 283 280 279 280 279 278 274 274 272 271 274 275 275 275 275 275 273 273 272 271 281 280 282 284 283 276
287 284 283 282 280 281 285 285 285 284 284 285 284 287 283 286 283 282 281 280 282 282 281 279 276 276 274 273 274 274 276 276 274 275 274 273 270 272 273 278 281 281 282 282
284 282 281 281 285 282 282 283 279 278 279 282 283 280 284 283 276 280 282 283 283 284 282 280 278 278 276 274 274 274 274 271 274 275 275 274 274 272 268 271 272 269 276 278
286 285 287 282 278 277 275 275 277 280 280 279 278 281 281 283 283 285 286 283 282 282 282 280 279 280 276 275 275 275 275 275 275 274 274 273 270 267 268 265 264 261 261 273
287 284 281 283 287 286 278 274 279 283 283 282 281 280 282 283 285 285 285 282 280 282 284 282 281 283 277 276 276 276 276 277 276 276 275 272 271 273 271 271 270 270 267 267
283 283 277 279 285 285 281 285 282 284 284 282 282 281 281 279 281 282 283 285 285 286 287 285 284 284 278 278 277 278 278 278 277 277 278 277 276 275 275 275 275 275 275 271
291 292 289 290 290 282 279 282 282 283 283 283 281 279 279 277 280 282 283 282 281 283 286 287 286 283 279 278 278 279 278 279 278 278 278 278 278 277 276 275 275 275 275 270
288 290 290 287 282 279 282 281 281 282 280 277 274 277 279 280 279 280 278 280 280 280 284 286 284 281 280 279 278 279 279 279 279 280 280 279 278 278 276 275 275 275 275 272
289 277 278 277 272 275 280 272 268 268 269 268 268 269 274 273 274 275 275 280 283 282 282 286 285 283 282 281 279 280 279 279 279 280 280 280 279 279 279 277 276 275 275 273
275 271 274 271 268 265 265 264 263 265 266 262 266 269 271 270 268 270 272 275 278 282 284 281 285 284 282 280 278 279 279 279 279 280 280 280 279 280 280 279 279 275 275 274
269 269 266 266 266 265 262 261 261 261 261 261 261 262 263 268 266 268 273 278 276 276 276 277 280 282 282 280 278 279 280 280 280 281 280 280 280 280 280 279 279 276 275 275
267 264 263 263 263 262 261 260 260 260 261 261 262 261 263 265 266 268 272 271 269 271 271 272 274 276 278 278 277 277 278 279 280 280 281 281 280 280 280 278 277 276 275 276
261 262 261 259 258 260 263 262 260 262 264 266 266 264 263 265 267 267 270 268 269 270 269 270 272 276 274 270 271 274 276 277 278 280 280 280 281 280 280 279 277 277 276 276
259 259 258 260 261 260 259 260 261 262 266 267 269 268 268 266 267 264 262 262 265 265 265 267 273 272 267 269 270 271 272 273 276 277 279 280 280 281 280 279 278 278 277 277
261 260 259 258 259 259 259 261 264 266 266 266 262 260 261 260 266 265 262 263 262 263 261 262 262 262 265 267 266 266 267 268 269 273 277 279 279 278 278 277 277 277 277 276
260 261 260 260 260 262 261 260 259 260 259 258 261 261 261 261 262 262 262 262 261 261 260 261 262 264 263 263 264 264 264 266 268 268 270 271 272 272 273 275 275 275 274 272
Wind_Speed
5 5 3 6 6 7 9 6 7 6 6 12 9 9 7 5 3 6 7 4 6 6 5 4 4 4 4 5 5 5 8 8 8 8 8 9 9 9 9 9 8 8 9 8
6 2 1 5 8 9 4 3 11 13 21 12 7 3 3 6 5 7 8 6 7 7 6 5 4 3 3 3 5 5 6 7 7 7 8 9 9 10 10 10 10 9 9 9
7 2 3 6 9 12 5 6 8 7 13 4 4 4 5 7 7 8 8 8 8 8 6 5 5 2 2 3 3 5 5 5 6 5 5 6 6 8 8 8 8 9 9 9
5 5 3 7 5 7 7 6 16 9 7 6 6 5 7 8 7 9 8 8 7 6 5 6 4 3 2 4 4 5 5 5 4 4 5 5 7 7 7 5 6 6 7 7
3 3 8 2 5 8 8 8 16 18 13 7 5 3 8 11 11 10 8 7 7 7 6 5 6 4 4 4 4 4 4 4 4 4 4 3 6 5 4 5 6 7 6 6
3 2 5 5 3 5 4 6 6 14 8 7 6 2 6 3 6 8 8 7 8 8 6 6 5 5 5 5 5 4 2 2 3 4 4 5 5 5 3 5 5 3 6 5
3 4 12 6 6 6 6 7 4 8 6 8 7 5 4 4 4 6 7 9 7 7 8 8 7 6 5 5 5 5 4 3 3 4 4 5 5 4 4 4 5 4 6 3
3 1 10 7 5 8 4 1 3 4 6 8 7 5 4 5 7 8 9 7 8 7 7 7 7 6 6 6 4 2 4 3 2 2 2 3 5 3 4 5 4 2 3 3
12 11 2 11 6 7 3 3 3 2 4 6 7 9 7 6 8 9 9 8 7 8 6 4 5 6 7 5 6 4 3 4 2 2 1 2 3 3 3 3 3 2 2 2
3 4 13 11 11 6 6 8 6 6 5 5 7 7 9 8 7 7 8 9 7 7 8 8 7 7 5 7 7 6 5 4 4 5 3 2 2 2 2 1 1 1 1 1
7 10 7 13 12 11 9 7 9 8 9 10 8 9 8 7 9 9 8 6 8 11 11 12 8 8 6 7 8 7 5 4 3 3 3 2 2 3 3 2 3 4 3 3
11 11 7 6 5 6 9 11 12 9 6 11 10 13 8 9 8 7 9 7 8 11 9 10 10 9 8 8 10 9 8 6 6 5 3 3 3 1 4 5 2 5 8 6
10 4 7 4 5 3 8 10 10 8 10 8 8 11 7 10 7 8 7 9 12 16 16 9 11 12 11 10 9 10 9 6 4 5 6 6 4 5 6 4 5 4 5 8
8 4 7 6 12 8 10 8 3 4 5 8 9 5 8 10 4 8 11 15 13 13 12 12 11 14 13 14 12 10 7 6 6 6 6 5 6 5 3 5 5 3 8 7
20 15 15 5 4 6 3 3 4 8 7 7 7 8 6 10 10 13 12 7 8 9 10 10 12 15 11 14 16 15 11 8 8 6 5 6 4 4 4 3 3 2 2 5
9 8 9 15 21 14 7 6 8 13 8 10 9 8 12 12 11 10 8 8 10 13 16 14 15 15 13 15 15 11 11 12 11 8 6 6 5 6 5 6 5 5 5 6
5 8 4 10 15 14 12 10 11 12 10 9 11 10 8 8 8 8 9 11 14 14 13 13 20 11 13 15 16 12 11 11 14 9 10 10 10 10 9 8 9 9 9 7
18 15 12 14 12 6 6 9 8 11 12 10 8 6 6 7 11 10 10 6 6 10 11 12 8 8 11 14 14 11 10 10 10 11 9 9 10 9 9 10 10 10 8 6
17 22 20 10 6 6 8 9 9 9 6 7 4 8 8 8 6 7 3 4 6 8 12 9 9 11 13 14 14 10 10 11 11 10 10 10 10 10 9 10 10 10 8 7
17 6 5 5 5 6 6 2 2 3 4 2 3 3 7 4 5 5 5 9 9 7 5 6 10 11 13 12 17 10 11 12 12 11 11 11 10 11 10 11 10 9 9 9
5 3 5 5 3 1 3 2 1 3 3 2 3 5 6 3 4 3 2 5 4 7 10 6 7 7 7 8 11 10 11 11 12 11 11 12 11 11 11 11 11 10 10 9
2 3 4 5 4 1 3 2 4 4 2 2 4 3 3 6 4 4 6 7 3 5 3 3 3 7 7 12 8 9 10 11 10 9 10 10 10 10 11 11 11 9 9 9
3 3 3 2 3 3 2 3 3 3 2 4 3 2 3 3 3 1 3 3 2 3 2 3 4 4 6 7 7 8 9 10 10 10 10 10 10 10 9 9 9 9 8 8
3 4 2 0 1 2 2 2 2 3 3 3 3 3 2 1 3 2 3 5 5 4 3 3 3 4 5 3 4 4 6 8 9 9 9 11 10 10 10 10 9 8 8 9
3 2 2 3 3 2 2 4 2 3 2 2 2 2 2 1 2 2 2 3 6 4 4 5 4 4 2 3 4 4 4 4 5 6 7 7 8 8 8 8 8 9 8 8
2 2 1 2 2 1 2 2 1 2 3 2 1 2 2 2 2 2 2 3 3 3 2 3 3 2 1 2 2 3 3 3 3 4 4 4 4 4 6 6 6 7 7 7
4 6 3 2 3 3 2 1 3 3 2 3 2 2 1 2 2 2 2 2 3 3 3 3 3 3 2 2 1 1 0 1 1 2 1 1 1 1 2 4 4 4 4 4
Wind_Direction
256 256 264 224 192 206 186 197 172 252 233 282 266 260 264 272 251 235 257 264 273 280 297 299 329 350 5 6 16 15 22 22 21 18 19 21 27 28 33 39 50 57 71 68
293 337 293 264 234 207 228 256 274 268 283 263 253 127 290 268 232 232 243 244 247 255 267 269 269 294 11 6 27 53 34 32 25 25 33 34 34 33 37 36 42 45 52 63
274 310 328 324 221 186 193 218 159 183 226 219 226 224 249 255 215 227 225 213 213 223 223 228 235 215 79 55 40 61 53 40 31 23 38 44 45 50 43 49 51 54 53 58
257 352 6 240 145 180 193 223 217 261 242 215 210 223 227 211 207 224 221 210 193 194 191 208 221 230 129 90 71 56 49 48 37 45 60 59 60 57 53 43 54 65 61 63
122 215 293 276 202 163 176 278 208 223 249 231 239 303 280 217 200 205 200 197 185 177 173 179 187 183 141 116 101 83 49 52 31 42 66 68 74 65 55 50 49 49 52 50
67 140 223 242 175 174 177 304 198 197 223 208 181 153 258 304 174 189 184 171 167 164 155 166 194 180 152 147 134 115 74 52 53 64 79 78 83 71 54 59 53 48 60 38
178 243 282 229 159 144 83 236 163 184 199 168 213 214 195 123 135 161 172 166 159 170 173 184 175 170 180 165 175 162 147 119 80 82 102 98 92 93 92 79 70 38 66 21
99 108 278 146 84 175 214 285 183 196 199 191 216 228 208 178 168 166 172 171 172 175 199 183 175 172 181 195 169 155 136 123 109 80 135 124 115 108 98 104 97 74 100 77
187 211 248 206 196 209 174 180 219 240 257 220 213 214 212 221 200 193 192 186 179 182 190 217 203 181 179 205 156 155 129 130 122 83 58 98 94 95 97 116 129 127 93 92
61 259 229 225 247 241 211 220 217 216 219 209 226 230 227 212 217 213 194 199 177 167 192 215 211 209 195 167 161 154 160 168 167 159 159 116 111 133 113 107 85 89 119 124
266 273 272 252 227 233 238 226 242 229 214 220 211 237 226 232 217 212 210 186 180 194 200 212 193 213 196 177 165 172 176 187 193 179 169 151 150 159 148 193 173 181 202 176
222 213 182 230 208 199 209 225 231 221 223 231 204 231 208 231 221 207 206 184 193 205 210 208 190 206 200 184 183 176 185 192 194 183 182 172 157 40 177 176 187 200 186 169
230 187 206 239 261 219 215 223 229 203 215 235 222 225 206 232 218 211 206 191 203 208 212 208 197 199 191 188 186 191 200 195 182 186 185 182 176 176 174 204 196 208 205 192
241 127 297 213 249 207 210 230 165 232 227 217 237 189 219 223 220 210 215 217 208 209 209 200 202 214 189 176 184 202 206 182 182 195 196 191 192 193 164 182 195 225 236 204
243 215 234 279 286 252 185 142 222 246 245 250 214 229 197 231 231 232 233 202 202 204 214 201 207 223 178 182 187 192 191 196 198 194 189 185 169 162 177 167 198 219 338 241
244 202 208 227 254 261 187 212 219 248 244 251 236 221 228 228 238 235 220 177 173 215 217 208 221 219 181 180 190 197 204 200 187 187 185 187 185 195 193 203 198 204 205 203
166 248 233 251 238 244 215 232 220 242 246 233 239 231 227 224 233 242 234 211 214 224 222 207 226 193 182 186 190 197 197 196 193 192 193 194 193 199 204 203 213 217 223 188
219 227 213 220 247 218 223 227 226 234 238 242 237 225 232 209 229 239 240 219 217 231 234 231 223 176 179 189 193 198 197 197 194 204 201 202 205 202 201 204 209 213 215 193
216 226 239 238 225 201 223 218 221 230 228 224 211 235 232 237 232 240 221 203 207 225 249 223 195 181 192 196 188 193 196 198 199 203 204 202 203 204 202 206 212 214 211 194
237 221 184 208 206 211 251 230 266 286 275 260 251 274 263 245 230 239 219 236 228 221 227 213 198 201 205 195 190 194 200 204 203 204 201 202 204 206 207 205 209 211 208 206
192 175 191 196 219 237 220 225 243 267 281 297 262 261 262 272 266 236 225 258 257 234 244 217 192 193 192 182 185 199 199 202 206 208 208 206 205 205 204 207 207 210 212 209
125 209 189 163 159 286 282 249 193 217 206 230 249 262 296 285 276 269 236 239 268 281 286 247 211 194 183 178 183 199 208 212 212 212 214 211 210 209 209 209 213 210 211 210
143 130 106 147 172 201 309 297 279 244 223 231 236 240 219 244 247 273 306 325 342 326 293 275 253 214 182 181 187 190 199 205 214 217 213 207 208 211 208 205 210 208 210 210
63 51 71 56 46 56 75 306 291 285 270 284 263 240 183 348 332 61 349 317 324 337 306 287 288 247 176 164 173 196 208 212 212 212 214 208 206 204 203 199 202 204 207 205
40 56 29 54 62 16 314 295 334 33 358 357 71 56 41 175 185 289 337 312 322 343 323 321 323 314 211 172 175 185 191 203 218 221 222 218 216 215 211 201 199 193 196 203
46 68 26 87 147 29 309 340 65 11 44 27 327 352 351 329 326 351 340 329 346 352 344 323 326 347 58 128 172 203 207 208 205 222 219 213 201 187 193 193 194 194 198 200
46 56 38 10 17 9 329 36 51 331 287 240 206 305 347 358 4 35 44 26 17 359 5 353 359 30 49 61 57 37 270 270 186 199 207 160 129 156 177 192 195 190 183 176